IRIDIUM 29

Last updated on Wed Nov 29 2017 00:19:02 GMT+0000 (Coordinated Universal Time)

1 24944U 97051A 17332.16166949 .00000155 00000-0 47984-4 0 9990 2 24944 86.3999 218.2838 0001810 83.3639 276.7763 14.34630850 57940
UTC large
Height (km)
Speed (km/s)
/
Latitude / Longitude
Inclination (degrees)
Orbital Period (minutes)
Azimuth
Elevation
Range (km)
Doppler Factor

Next 0 passes for location: London (51.5072 / 0.1276)

Sorry there are no passes over London.